Wind_Speed
4 1 2 3 5 7 9 12 13 10 17 23 22 25 26 26 26 26 25 25 25 25 26 26 26 26 26 25 23 23 22 22 22 22 23 23 25 26
2 1 3 5 7 9 11 13 15 15 14 22 24 25 25 26 25 25 24 24 24 24 25 26 28 28 27 24 23 23 23 24 24 25 24 25 25 26
2 2 4 6 9 11 13 14 16 18 21 24 25 25 25 24 23 22 22 22 23 23 23 23 24 26 28 29 26 23 23 25 26 26 25 24 25 25
3 4 6 8 10 13 15 17 18 20 23 26 27 26 25 23 23 23 22 23 25 24 24 24 25 23 23 25 27 29 30 30 29 28 24 24 26 26
4 6 9 12 14 15 18 19 19 20 22 26 28 28 28 26 26 26 25 25 25 24 24 25 23 22 23 24 24 25 27 27 25 23 25 27 28 27
6 8 12 14 17 18 19 20 21 22 23 25 27 28 28 28 27 28 28 26 27 26 25 24 24 24 24 24 24 25 25 22 24 27 28 28 26 25
8 11 14 16 18 20 21 21 21 22 23 24 26 27 28 27 26 27 28 29 28 27 28 23 27 28 26 27 26 23 23 26 28 28 27 26 26 26
11 14 17 18 19 19 19 19 20 21 23 24 25 27 25 25 26 24 26 27 23 20 24 29 29 30 30 28 25 25 26 26 25 26 29 30 31 29
16 18 18 19 19 20 20 20 20 21 21 21 24 26 27 25 24 24 23 23 26 27 28 31 30 32 29 26 27 28 25 23 26 26 30 30 29 29
18 19 20 19 19 20 19 19 19 19 18 19 21 23 25 23 23 23 24 27 29 31 31 32 28 31 30 29 28 24 24 26 26 28 31 29 26 28
20 19 17 17 17 17 18 18 18 20 18 19 19 19 20 20 21 24 26 27 29 30 26 28 26 31 34 31 28 29 30 27 25 28 30 26 24 26
17 15 15 16 15 14 13 16 20 19 19 21 22 21 21 22 22 23 26 25 28 29 23 21 25 26 27 25 33 35 34 30 28 27 26 23 25 26
15 15 14 13 13 11 13 14 17 17 19 20 22 23 23 23 22 22 23 25 27 29 29 26 27 25 26 33 37 38 36 35 31 28 26 28 26 26
14 13 14 12 12 14 15 15 17 19 21 22 22 23 22 22 22 22 23 24 24 28 26 23 28 24 27 34 40 41 39 34 30 26 32 32 28 29
13 12 11 13 16 17 16 16 18 20 21 21 21 20 22 24 23 22 21 22 21 21 22 22 24 25 25 30 38 38 38 35 25 30 31 32 31 32
12 11 14 16 18 18 18 18 18 19 18 18 17 19 19 21 21 20 22 19 18 16 14 16 17 21 26 29 31 34 31 30 30 26 30 33 30 31
12 16 19 20 20 20 19 18 17 17 16 15 17 20 21 21 20 20 19 20 21 21 21 18 15 19 24 26 30 28 24 26 23 27 30 35 31 30
14 18 20 22 22 22 18 15 14 15 16 17 19 20 21 20 22 21 20 21 22 22 21 20 19 21 25 28 22 25 25 26 27 27 28 33 34 29
16 18 20 22 22 16 16 15 19 19 20 22 22 22 21 21 22 22 21 21 21 21 22 23 22 19 24 27 29 22 25 26 26 27 29 31 32 30
17 19 20 18 16 17 19 21 23 24 25 25 22 22 23 22 20 20 20 20 20 20 20 18 15 16 20 23 27 28 23 23 25 29 32 31 27 26
18 17 17 17 18 20 23 24 23 25 23 20 20 19 20 20 19 20 21 20 20 20 21 18 15 16 20 21 25 28 25 20 24 28 29 28 29 29
16 18 18 20 21 23 23 22 22 22 18 19 20 18 20 24 23 23 23 22 21 20 20 20 17 17 19 20 22 25 27 28 25 22 15 18 21 19
17 18 19 21 24 22 21 21 22 21 21 19 20 19 18 18 20 20 21 19 22 20 19 20 19 16 16 19 22 25 25 26 29 27 10 14 15 17
Wind_Direction
190 154 6 341 338 336 331 328 331 324 316 321 325 323 322 324 326 324 324 324 326 326 325 322 319 316 312 310 311 311 310 308 307 305 299 296 295 296
180 28 315 319 324 325 328 328 324 316 304 313 318 320 320 320 318 313 312 312 315 317 319 318 316 315 313 313 311 307 305 301 307 307 303 298 297 299
246 287 291 318 323 322 324 326 322 317 310 311 315 319 317 315 313 312 314 317 319 319 317 315 310 307 304 303 305 304 297 297 304 303 305 305 302 298
244 274 302 314 319 324 323 321 317 313 311 311 314 317 316 318 313 311 313 315 316 317 316 316 314 315 310 303 298 296 297 296 299 301 305 301 301 298
260 291 310 315 318 317 315 312 311 308 307 307 311 316 318 320 315 313 313 313 311 313 316 313 312 315 316 314 306 301 298 298 299 303 298 298 300 300
282 304 310 313 315 313 311 311 308 307 307 306 308 313 317 319 316 315 314 314 312 314 313 311 312 317 316 315 309 308 308 307 303 303 301 300 299 295
299 307 311 313 312 312 310 309 308 308 307 306 307 311 317 319 315 313 310 312 314 315 314 315 317 320 320 317 312 308 312 310 307 305 303 300 295 291
303 310 313 309 308 305 303 304 306 306 304 304 305 305 311 315 315 308 306 310 312 313 312 315 319 319 317 313 314 313 312 313 312 309 304 295 291 293
310 312 310 311 309 308 307 305 300 297 294 296 298 302 306 310 310 304 304 304 304 306 306 307 312 315 316 310 318 317 312 313 317 316 313 305 296 295
313 313 314 314 313 312 312 310 308 303 306 301 299 302 302 305 305 303 303 305 303 304 307 303 309 313 315 316 320 319 323 324 322 320 318 307 298 289
310 311 309 309 314 316 312 312 315 309 308 303 299 299 300 300 300 298 297 306 301 304 299 298 307 312 316 318 322 321 321 326 324 325 322 311 305 302
307 309 308 313 315 313 317 310 308 319 320 314 307 308 308 303 296 292 299 297 297 299 302 292 304 314 318 316 320 319 321 326 328 324 322 316 315 313
308 309 310 312 314 318 311 307 314 317 307 310 313 313 310 307 303 298 297 292 290 286 293 295 293 306 307 312 318 319 321 324 326 323 323 321 316 319
304 307 308 313 317 309 310 315 312 311 314 316 316 316 318 320 313 307 305 298 290 287 291 282 281 296 302 306 312 317 316 322 325 324 326 323 320 323
303 308 306 305 308 309 309 309 309 311 312 311 312 319 323 318 311 309 302 308 292 291 293 284 278 293 295 307 311 311 313 320 318 323 321 324 325 327
306 300 299 304 311 310 308 306 303 305 308 306 306 316 321 323 322 319 316 316 315 311 306 303 296 293 304 307 309 311 317 310 315 318 324 324 324 328
309 296 297 303 306 311 309 303 299 301 310 314 316 319 321 321 322 322 322 311 304 306 311 310 292 299 307 308 306 314 316 316 314 319 323 325 325 331
292 288 292 301 309 310 309 309 313 309 307 306 308 312 316 317 317 319 320 314 307 303 305 311 304 308 317 319 320 323 326 323 321 320 322 326 325 333
279 288 297 301 302 298 296 295 306 307 307 307 307 308 308 310 312 313 314 315 316 311 305 299 302 307 314 315 321 324 325 325 324 324 325 326 323 331
292 293 292 294 292 293 293 299 302 304 305 304 304 304 301 302 306 314 314 312 313 319 317 322 306 306 310 312 314 321 324 325 329 326 324 324 325 330
291 287 285 285 288 290 292 296 298 301 304 301 301 301 303 301 303 307 307 307 307 306 309 310 309 302 314 310 309 315 324 331 330 326 323 321 327 328
285 285 286 288 295 300 299 300 297 299 295 295 303 297 292 303 304 307 309 302 303 307 307 311 311 300 309 312 313 315 321 329 328 325 316 310 313 307
293 291 289 291 298 301 300 299 298 299 302 300 300 297 302 305 307 308 310 309 303 300 305 306 308 300 304 313 318 320 323 328 331 336 339 330 327 326
Height
1537 1536 1536 1538 1538 1536 1534 1534 1533 1534 1532 1530 1529 1529 1527 1524 1522 1520 1516 1513 1510 1508 1505 1502 1499 1496 1495 1491 1489 1486 1484 1481 1477 1475 1474 1472 1469 1466
1535 1532 1536 1536 1536 1534 1532 1529 1529 1529 1529 1527 1526 1524 1522 1520 1518 1515 1513 1510 1509 1506 1504 1499 1495 1491 1486 1483 1483 1480 1479 1475 1472 1469 1467 1465 1462 1458
1532 1531 1536 1533 1532 1532 1530 1528 1526 1525 1524 1522 1521 1519 1517 1515 1513 1510 1506 1504 1502 1500 1498 1496 1492 1487 1484 1479 1476 1474 1472 1468 1466 1462 1460 1458 1456 1453
1530 1532 1532 1531 1528 1528 1527 1525 1523 1522 1520 1517 1515 1514 1513 1511 1507 1503 1499 1497 1494 1493 1491 1486 1485 1479 1478 1474 1470 1467 1464 1461 1458 1456 1454 1452 1448 1445
1528 1528 1529 1529 1526 1523 1522 1520 1517 1517 1516 1511 1509 1508 1506 1505 1502 1500 1495 1490 1489 1487 1486 1483 1477 1473 1471 1468 1464 1459 1457 1454 1452 1450 1447 1444 1441 1438
1524 1525 1526 1524 1522 1519 1517 1516 1513 1512 1512 1508 1506 1502 1501 1500 1496 1494 1490 1484 1484 1483 1478 1476 1473 1469 1466 1462 1457 1453 1450 1448 1446 1443 1439 1436 1434 1431
1520 1521 1520 1518 1517 1513 1511 1509 1507 1505 1505 1502 1500 1497 1496 1494 1492 1488 1485 1481 1477 1475 1472 1470 1467 1463 1459 1455 1451 1448 1445 1441 1438 1434 1432 1429 1426 1423
1517 1515 1514 1515 1512 1510 1507 1504 1502 1501 1499 1497 1494 1495 1490 1489 1489 1483 1479 1478 1472 1472 1467 1464 1461 1457 1453 1450 1446 1442 1438 1435 1431 1427 1424 1420 1416 1413
1512 1509 1508 1506 1505 1503 1502 1498 1498 1499 1497 1491 1489 1489 1489 1485 1480 1477 1476 1470 1471 1469 1463 1457 1455 1451 1447 1443 1441 1436 1433 1429 1425 1421 1415 1410 1406 1403
1504 1503 1500 1500 1500 1500 1495 1492 1492 1490 1489 1489 1484 1481 1481 1477 1475 1473 1469 1467 1464 1462 1458 1451 1450 1445 1441 1438 1435 1431 1427 1423 1419 1414 1408 1402 1398 1395
1499 1498 1496 1494 1493 1491 1491 1490 1485 1487 1482 1483 1483 1477 1475 1472 1470 1468 1464 1463 1457 1455 1454 1448 1444 1439 1434 1431 1428 1424 1421 1418 1413 1407 1401 1396 1391 1387
1494 1493 1492 1490 1487 1487 1486 1485 1482 1478 1476 1475 1475 1472 1468 1464 1464 1463 1460 1456 1453 1448 1448 1445 1440 1436 1427 1425 1423 1418 1413 1411 1406 1401 1396 1391 1386 1380
1487 1488 1486 1485 1486 1483 1481 1478 1477 1476 1471 1470 1466 1465 1462 1460 1458 1456 1454 1451 1448 1444 1442 1440 1436 1433 1429 1420 1415 1412 1408 1403 1399 1394 1390 1385 1379 1375
1482 1482 1482 1480 1479 1479 1477 1472 1473 1470 1468 1464 1461 1460 1456 1453 1451 1449 1448 1445 1442 1438 1436 1435 1430 1428 1424 1417 1411 1405 1402 1398 1393 1388 1383 1377 1373 1367
1477 1476 1476 1475 1475 1475 1471 1469 1466 1465 1463 1460 1458 1454 1451 1448 1446 1445 1443 1438 1435 1433 1430 1428 1426 1423 1420 1415 1408 1401 1396 1391 1388 1384 1378 1372 1366 1361
1473 1471 1473 1471 1471 1468 1467 1464 1462 1461 1458 1456 1453 1450 1447 1445 1442 1440 1436 1433 1430 1428 1426 1423 1421 1418 1414 1411 1405 1397 1394 1389 1383 1380 1373 1367 1361 1357
1470 1467 1468 1467 1465 1464 1460 1459 1457 1456 1454 1452 1449 1447 1444 1441 1438 1436 1433 1429 1426 1423 1420 1419 1416 1413 1410 1406 1399 1395 1389 1384 1380 1375 1369 1361 1356 1351
1467 1464 1464 1463 1459 1456 1455 1455 1454 1452 1450 1448 1445 1442 1439 1437 1434 1431 1429 1426 1421 1418 1416 1413 1411 1408 1404 1399 1396 1389 1385 1380 1375 1371 1366 1358 1350 1347
1462 1459 1458 1456 1454 1453 1453 1451 1449 1447 1445 1442 1439 1437 1435 1432 1430 1427 1424 1420 1417 1414 1411 1409 1406 1403 1399 1394 1390 1388 1382 1377 1371 1366 1362 1356 1348 1342
1456 1454 1453 1451 1450 1449 1448 1446 1443 1441 1439 1436 1434 1432 1430 1427 1425 1422 1419 1416 1413 1410 1407 1404 1401 1399 1396 1392 1386 1380 1380 1374 1369 1362 1355 1351 1346 1340
1451 1450 1449 1447 1445 1443 1441 1439 1437 1435 1433 1431 1428 1426 1424 1422 1419 1417 1414 1412 1409 1406 1403 1400 1398 1395 1392 1388 1384 1378 1373 1372 1367 1360 1354 1348 1342 1336
1446 1444 1442 1440 1439 1436 1434 1433 1431 1429 1426 1425 1422 1421 1419 1417 1414 1411 1408 1405 1404 1401 1398 1396 1393 1391 1388 1385 1380 1375 1369 1365 1362 1358 1354 1350 1343 1337
1439 1437 1435 1433 1431 1429 1428 1426 1424 1422 1420 1418 1417 1415 1413 1410 1408 1406 1403 1401 1398 1396 1394 1391 1389 1386 1384 1381 1377 1372 1367 1363 1356 1351 1348 1346 1342 1338